• In Lithuania
  • List of Countries
  • For 7 days
  • Water Temperature
  • Satellite Maps
  • Weather Map
  • Weather Widgets
  • user-avatar
    Login

    Hourly Weather Trujillo

    Today, 18 December, Monday

    Time Temperature Precipitation Wind Pressure Humidity
    00:00 +25°C° 0 mm 4 mps 762 mmHg 98%
    01:00 +25°C° 0.1 mm 4 mps 762 mmHg 98%
    02:00 +25°C° 0.1 mm 3 mps 761 mmHg 98%
    03:00 +25°C° 0.1 mm 3 mps 761 mmHg 98%
    04:00 +25°C° 0.2 mm 3 mps 761 mmHg 98%
    05:00 +25°C° 0.2 mm 3 mps 762 mmHg 98%
    06:00 +25°C° 0.2 mm 3 mps 762 mmHg 98%
    07:00 +26°C° 0.2 mm 3 mps 762 mmHg 93%
    08:00 +28°C° 0.2 mm 4 mps 763 mmHg 89%
    09:00 +29°C° 0.2 mm 4 mps 763 mmHg 84%
    10:00 +30°C° 0.3 mm 4 mps 763 mmHg 83%
    11:00 +30°C° 0.3 mm 4 mps 762 mmHg 81%
    12:00 +30°C° 0.3 mm 5 mps 762 mmHg 79%
    13:00 +30°C° 0.3 mm 5 mps 762 mmHg 81%
    14:00 +30°C° 0.3 mm 5 mps 761 mmHg 82%
    15:00 +30°C° 0.3 mm 5 mps 761 mmHg 84%
    16:00 +29°C° 0.1 mm 5 mps 761 mmHg 89%
    17:00 +27°C° 0.1 mm 5 mps 761 mmHg 94%
    18:00 +26°C° 0.1 mm 5 mps 761 mmHg 98%
    19:00 +26°C° 0 mm 5 mps 762 mmHg 99%
    20:00 +25°C° 0 mm 4 mps 762 mmHg 99%
    21:00 +25°C° 0 mm 4 mps 763 mmHg 99%
    22:00 +25°C° 0 mm 4 mps 763 mmHg 99%
    23:00 +25°C° 0 mm 4 mps 763 mmHg 99%

    Tomorrow, 19 December, Tuesday

    Time Temperature Precipitation Wind Pressure Humidity
    00:00 +25°C° 0 mm 3 mps 763 mmHg 99%
    01:00 +24°C° 0 mm 3 mps 762 mmHg 99%
    02:00 +24°C° 0 mm 2 mps 762 mmHg 99%
    03:00 +24°C° 0 mm 2 mps 762 mmHg 99%
    04:00 +24°C° 0.2 mm 2 mps 762 mmHg 98%
    05:00 +24°C° 0.2 mm 2 mps 762 mmHg 98%
    06:00 +25°C° 0.2 mm 2 mps 762 mmHg 97%
    07:00 +25°C° 0.3 mm 3 mps 763 mmHg 97%
    08:00 +26°C° 0.3 mm 3 mps 763 mmHg 96%
    09:00 +26°C° 0.3 mm 4 mps 764 mmHg 96%
    10:00 +27°C° 0.3 mm 4 mps 763 mmHg 93%
    11:00 +28°C° 0.3 mm 4 mps 763 mmHg 89%
    12:00 +29°C° 0.3 mm 4 mps 762 mmHg 86%
    13:00 +29°C° 0.3 mm 4 mps 762 mmHg 87%
    14:00 +29°C° 0.3 mm 5 mps 761 mmHg 87%
    15:00 +30°C° 0.3 mm 5 mps 760 mmHg 87%
    16:00 +28°C° 0.2 mm 5 mps 760 mmHg 91%
    17:00 +27°C° 0.2 mm 5 mps 761 mmHg 95%
    18:00 +26°C° 0.2 mm 5 mps 761 mmHg 99%
    19:00 +26°C° 0.1 mm 4 mps 761 mmHg 99%
    20:00 +26°C° 0.1 mm 4 mps 762 mmHg 99%
    21:00 +26°C° 0.1 mm 4 mps 763 mmHg 99%
    22:00 +25°C° 0 mm 4 mps 762 mmHg 99%
    23:00 +25°C° 0 mm 3 mps 762 mmHg 99%

    Day after tomorrow, 20 December, Wednesday

    Time Temperature Precipitation Wind Pressure Humidity
    00:00 +25°C° 0 mm 3 mps 762 mmHg 99%
    01:00 +25°C° 0 mm 3 mps 762 mmHg 99%
    02:00 +25°C° 0 mm 3 mps 761 mmHg 99%
    03:00 +24°C° 0 mm 2 mps 761 mmHg 99%
    04:00 +24°C° 0 mm 2 mps 761 mmHg 99%
    05:00 +24°C° 0 mm 2 mps 761 mmHg 99%
    06:00 +24°C° 0 mm 2 mps 761 mmHg 98%
    07:00 +26°C° 0.1 mm 2 mps 762 mmHg 92%
    08:00 +28°C° 0.1 mm 2 mps 762 mmHg 86%
    09:00 +29°C° 0.1 mm 1 mps 763 mmHg 80%
    10:00 +30°C° 0.1 mm 2 mps 762 mmHg 78%
    11:00 +31°C° 0.1 mm 2 mps 762 mmHg 75%
    12:00 +31°C° 0.1 mm 3 mps 761 mmHg 73%
    13:00 +30°C° 0.5 mm 3 mps 761 mmHg 79%
    14:00 +29°C° 0.5 mm 3 mps 760 mmHg 85%
    15:00 +29°C° 0.5 mm 4 mps 760 mmHg 91%
    16:00 +28°C° 0.5 mm 4 mps 760 mmHg 93%
    17:00 +27°C° 0.5 mm 4 mps 760 mmHg 96%
    18:00 +26°C° 0.5 mm 4 mps 760 mmHg 99%
    19:00 +26°C° 0.1 mm 3 mps 761 mmHg 99%
    20:00 +25°C° 0.1 mm 3 mps 761 mmHg 99%
    21:00 +25°C° 0.1 mm 3 mps 762 mmHg 99%
    22:00 +25°C° 0.1 mm 3 mps 761 mmHg 99%
    23:00 +25°C° 0.1 mm 3 mps 761 mmHg 99%

    21 December, Thursday

    Time Temperature Precipitation Wind Pressure Humidity
    00:00 +24°C° 0.1 mm 3 mps 761 mmHg 99%
    01:00 +24°C° 0 mm 3 mps 760 mmHg 99%
    02:00 +24°C° 0 mm 3 mps 760 mmHg 99%
    03:00 +24°C° 0 mm 3 mps 760 mmHg 99%
    04:00 +24°C° 0 mm 3 mps 760 mmHg 99%
    05:00 +22°C° 0 mm 3 mps 760 mmHg 99%
    06:00 +22°C° 0 mm 3 mps 761 mmHg 99%
    07:00 +25°C° 0 mm 2 mps 761 mmHg 92%
    08:00 +27°C° 0 mm 2 mps 762 mmHg 85%
    09:00 +29°C° 0 mm 2 mps 762 mmHg 78%
    10:00 +31°C° 0 mm 2 mps 762 mmHg 71%
    11:00 +33°C° 0 mm 3 mps 761 mmHg 63%
    12:00 +34°C° 0 mm 3 mps 761 mmHg 56%
    13:00 +33°C° 0.3 mm 4 mps 760 mmHg 64%
    14:00 +32°C° 0.3 mm 4 mps 760 mmHg 71%
    15:00 +30°C° 0.3 mm 5 mps 759 mmHg 79%
    16:00 +29°C° 0.2 mm 5 mps 759 mmHg 85%
    17:00 +27°C° 0.2 mm 5 mps 760 mmHg 92%
    18:00 +26°C° 0.2 mm 5 mps 760 mmHg 98%
    19:00 +26°C° 0 mm 5 mps 760 mmHg 98%
    20:00 +25°C° 0 mm 5 mps 761 mmHg 98%
    21:00 +25°C° 0 mm 4 mps 761 mmHg 98%
    22:00 +25°C° 0 mm 4 mps 761 mmHg 98%
    23:00 +25°C° 0 mm 4 mps 761 mmHg 98%

    22 December, Friday

    Time Temperature Precipitation Wind Pressure Humidity
    00:00 +25°C° 0 mm 4 mps 761 mmHg 98%
    01:00 +25°C° 0 mm 3 mps 760 mmHg 98%
    02:00 +25°C° 0 mm 3 mps 760 mmHg 97%
    03:00 +24°C° 0 mm 3 mps 760 mmHg 97%
    04:00 +24°C° 0 mm 3 mps 760 mmHg 97%
    05:00 +24°C° 0 mm 3 mps 760 mmHg 97%
    06:00 +24°C° 0 mm 3 mps 761 mmHg 97%
    07:00 +26°C° 0.2 mm 3 mps 761 mmHg 92%
    08:00 +28°C° 0.2 mm 3 mps 762 mmHg 87%
    09:00 +29°C° 0.2 mm 3 mps 762 mmHg 82%
    10:00 +30°C° 0.3 mm 4 mps 762 mmHg 80%
    11:00 +30°C° 0.3 mm 4 mps 761 mmHg 79%
    12:00 +32°C° 0.3 mm 5 mps 761 mmHg 77%
    13:00 +32°C° 0.3 mm 5 mps 760 mmHg 79%
    14:00 +32°C° 0.3 mm 5 mps 760 mmHg 80%
    15:00 +32°C° 0.3 mm 5 mps 759 mmHg 82%
    16:00 +29°C° 0.2 mm 5 mps 759 mmHg 87%
    17:00 +28°C° 0.2 mm 5 mps 760 mmHg 92%
    18:00 +26°C° 0.2 mm 5 mps 760 mmHg 97%
    19:00 +26°C° 0 mm 5 mps 761 mmHg 97%
    20:00 +26°C° 0 mm 5 mps 761 mmHg 97%
    21:00 +25°C° 0 mm 5 mps 761 mmHg 97%
    22:00 +25°C° 0 mm 4 mps 761 mmHg 97%
    23:00 +25°C° 0 mm 4 mps 761 mmHg 97%

    23 December, Saturday

    Time Temperature Precipitation Wind Pressure Humidity
    00:00 +25°C° 0 mm 4 mps 761 mmHg 97%
    01:00 +25°C° 0 mm 4 mps 761 mmHg 98%
    02:00 +24°C° 0 mm 3 mps 761 mmHg 98%
    03:00 +24°C° 0 mm 3 mps 760 mmHg 98%
    04:00 +24°C° 0 mm 3 mps 761 mmHg 98%
    05:00 +24°C° 0 mm 3 mps 761 mmHg 98%
    06:00 +24°C° 0 mm 3 mps 762 mmHg 98%
    07:00 +26°C° 0.1 mm 2 mps 762 mmHg 90%
    08:00 +28°C° 0.1 mm 2 mps 763 mmHg 83%
    09:00 +30°C° 0.1 mm 2 mps 763 mmHg 75%
    10:00 +30°C° 0.4 mm 3 mps 763 mmHg 77%
    11:00 +30°C° 0.4 mm 3 mps 762 mmHg 79%
    12:00 +32°C° 0.4 mm 4 mps 762 mmHg 82%
    13:00 +30°C° 0.6 mm 4 mps 761 mmHg 85%
    14:00 +29°C° 0.6 mm 4 mps 761 mmHg 88%
    15:00 +29°C° 0.6 mm 4 mps 760 mmHg 91%
    16:00 +28°C° 0.3 mm 4 mps 760 mmHg 94%
    17:00 +27°C° 0.3 mm 4 mps 761 mmHg 96%
    18:00 +26°C° 0.3 mm 4 mps 761 mmHg 99%
    19:00 +26°C° 0.1 mm 4 mps 761 mmHg 99%
    20:00 +25°C° 0.1 mm 3 mps 762 mmHg 99%
    21:00 +25°C° 0.1 mm 3 mps 762 mmHg 99%
    22:00 +25°C° 0.1 mm 3 mps 762 mmHg 99%
    23:00 +25°C° 0.1 mm 3 mps 762 mmHg 99%
    Show more